Presure
193 189 191 193 182 173 171 186 182 180 169 141 142 123 113 123 147 109 131 118 119 130 120 122 114 104 143 112 173 151 167 201 192 192 196 188 194 182 169 118 190 129 187 171 136 139 194
187 191 188 180 171 166 185 192 162 162 156 157 170 145 141 131 137 121 129 133 116 104 158 164 138 126 117 173 173 107 173 210 205 153 199 187 120 194 188 129 176 142 129 173 135 178 140
190 182 174 171 164 171 182 174 168 155 133 115 127 120 103 121 112 112 118 146 128 109 101 107 121 131 184 117 167 171 160 184 184 205 202 200 192 178 117 127 173 150 127 153 171 172 171
182 173 176 163 154 161 174 158 160 133 127 154 122 134 145 98 138 120 121 127 148 131 127 109 120 116 108 123 116 107 157 164 144 166 151 161 126 196 118 178 176 141 159 191 155 131 186
173 177 169 169 175 163 173 157 154 136 125 141 149 129 124 139 108 103 135 139 133 129 104 140 179 158 174 175 138 170 164 138 166 144 140 152 193 188 148 105 177 130 171 164 182 141 159
174 166 157 171 173 169 167 165 127 193 146 131 145 123 111 128 108 132 124 123 114 133 113 133 133 112 173 158 139 162 160 98 162 167 170 165 193 181 166 151 167 165 186 183 175 148 182
176 162 164 164 164 162 159 157 167 131 122 133 119 114 120 103 133 139 133 100 115 138 175 123 136 142 140 122 99 95 127 159 150 169 169 161 150 194 193 175 182 178 179 151 166 116 131
162 168 163 164 160 162 163 191 153 126 121 125 124 127 134 134 109 101 110 126 116 127 155 179 161 132 143 159 140 97 150 162 160 158 170 174 180 188 185 171 181 166 144 134 149 168 105
164 164 163 172 162 161 152 167 131 125 128 120 124 128 125 126 136 141 118 123 115 109 122 135 120 132 125 157 136 168 129 164 159 166 160 163 176 187 131 161 162 165 148 179 141 178 141
176 169 171 175 171 165 167 146 135 122 129 114 122 126 134 118 120 131 109 124 103 122 110 118 110 167 160 156 117 118 168 112 141 166 150 167 164 161 169 156 174 148 171 177 173 161 181
162 168 174 174 159 168 159 152 156 148 157 131 128 123 113 146 124 127 118 125 110 107 121 99 109 120 115 129 170 128 171 167 167 164 153 149 175 158 176 191 157 184 147 180 145 138 118
160 163 169 165 167 161 161 166 190 123 128 121 128 135 125 130 127 120 113 96 125 121 150 121 116 146 146 164 125 169 168 167 159 154 160 168 175 164 153 156 168 168 181 160 153 178 193
162 162 170 163 172 153 168 165 169 146 137 128 119 131 130 129 126 116 112 121 121 157 110 116 98 119 172 161 124 136 159 159 164 162 150 157 172 165 173 163 172 179 131 190 145 171 184
164 165 168 164 169 177 173 184 133 164 171 129 134 116 124 121 122 114 116 112 122 115 165 115 97 101 103 118 162 153 117 160 158 164 162 164 172 160 147 139 163 180 185 169 160 193 191
175 169 170 165 165 179 162 157 160 171 192 137 113 105 120 109 127 121 111 124 115 119 117 122 172 143 170 173 146 162 159 158 159 161 157 161 152 149 171 182 163 147 186 128 141 140 193
176 177 177 170 183 164 163 163 176 169 192 174 172 124 132 110 124 117 102 110 117 123 151 177 168 172 167 170 168 165 159 160 166 154 125 165 165 147 173 182 180 188 171 192 159 188 154
181 181 181 178 175 182 166 170 167 177 173 193 198 194 177 133 114 129 176 123 174 167 165 180 180 175 174 174 169 165 161 164 158 164 143 157 153 176 171 177 180 174 158 167 193 163 176
173 179 176 178 179 189 154 162 163 162 179 197 190 195 194 185 158 158 175 178 173 173 179 177 181 167 172 169 169 163 165 162 160 159 160 165 165 150 164 150 187 140 186 151 174 188 193
177 182 183 174 185 176 182 167 180 162 162 188 180 186 196 178 186 188 171 188 181 177 186 179 172 168 160 171 159 169 159 160 158 166 164 167 164 161 170 144 176 170 187 155 190 172 171
129 167 183 185 183 183 180 168 178 171 179 176 187 177 201 195 182 160 184 183 176 179 177 178 174 169 167 167 166 158 159 159 152 161 162 169 171 177 170 159 156 151 147 143 185 186 198
172 130 183 183 190 189 182 180 181 180 184 182 182 186 191 195 186 194 181 179 180 180 171 175 174 174 166 160 151 158 144 151 177 169 155 170 143 158 173 163 148 192 165 175 182 176 185
142 135 124 192 126 145 194 195 195 189 182 183 190 183 188 192 195 196 193 189 184 167 167 158 160 160 159 154 158 158 158 158 168 147 170 160 184 163 144 180 184 176 187 189 156 181 216
160 158 121 170 186 187 158 187 169 180 179 179 183 183 181 180 182 177 174 171 165 159 157 159 157 152 142 127 160 151 152 144 150 185 121 175 145 178 180 191 184 186 180 150 133 183 186
166 147 151 165 145 151 151 154 161 148 161 164 161 150 148 165 166 165 165 156 160 157 159 153 165 143 154 139 144 152 131 127 171 184 161 171 167 161 180 161 144 198 147 178 178 193 156
171 168 168 116 150 145 168 116 166 150 154 129 152 170 166 156 139 165 179 161 138 174 152 149 144 136 124 151 136 158 130 125 141 118 157 177 159 141 133 197 197 147 161 174 200 195 198
125 119 131 150 176 116 143 163 130 168 152 164 157 165 181 175 167 158 154 161 124 119 194 147 129 127 171 178 176 180 142 183 184 181 103 143 174 195 135 120 132 131 147 162 189 205 210
163 175 187 178 170 165 145 161 119 152 126 117 123 171 155 144 143 142 153 130 153 161 162 156 161 143 169 118 166 176 133 174 167 157 158 178 168 138 192 177 153 128 166 201 200 136 188
178 179 185 195 166 182 188 184 197 191 141 151 145 135 140 132 178 140 153 160 156 153 144 168 154 166 128 151 165 156 147 116 180 146 161 149 159 150 146 148 161 123 163 156 238 136 149
164 181 184 199 196 166 165 188 191 189 166 137 194 198 186 108 132 133 144 146 189 159 180 157 152 162 147 128 151 169 162 155 175 193 199 119 130 125 117 192 205 175 114 185 130 143 174
Wind_Speed
17 17 16 16 15 14 13 11 13 13 12 24 21 23 22 20 4 11 8 11 12 15 6 14 10 4 12 17 13 22 15 21 23 25 27 27 32 34 27 30 38 28 47 46 33 48 62
18 16 16 15 15 16 9 12 17 16 18 16 12 15 13 12 7 11 7 7 8 6 9 17 13 18 17 11 23 21 24 22 25 23 30 32 27 37 42 31 36 40 31 50 35 53 39
18 18 17 17 18 15 10 13 14 19 26 24 23 26 15 19 14 11 9 10 8 4 2 4 11 24 14 18 18 20 23 28 31 31 32 34 39 42 28 31 41 38 35 45 54 56 54
20 21 17 21 22 19 12 18 16 28 27 14 25 15 11 10 5 9 3 8 14 11 14 8 16 10 9 14 10 12 22 25 26 32 26 33 31 42 35 44 41 44 53 62 42 34 72
22 18 20 17 12 20 13 18 19 25 25 17 13 15 13 8 15 10 6 10 11 13 5 14 16 18 20 20 29 24 26 26 32 30 34 30 40 40 32 33 49 46 52 50 67 53 64
20 23 25 15 14 15 17 16 29 3 18 19 15 15 23 7 8 5 2 5 3 16 11 22 12 16 20 25 28 26 27 19 34 38 42 41 46 44 50 35 49 43 61 66 67 60 75
19 25 22 20 19 19 20 20 13 26 26 19 20 25 17 12 6 11 11 8 3 20 14 18 18 22 26 25 15 16 31 35 34 44 45 42 31 47 48 48 60 60 63 57 59 50 47
27 22 23 22 22 20 19 11 21 27 26 21 18 13 10 8 16 13 12 8 5 16 20 16 22 27 27 32 29 21 34 40 42 44 50 53 56 52 55 54 62 52 44 49 55 63 38
26 25 23 18 22 22 24 17 31 28 25 23 18 13 13 12 16 11 7 9 14 10 16 25 19 27 25 35 30 37 31 41 44 46 48 49 58 57 38 40 49 51 38 74 56 81 51
20 22 20 18 19 20 19 27 31 28 26 24 21 17 17 17 14 13 15 14 14 14 14 16 16 30 35 34 25 29 41 28 42 48 42 53 53 50 58 42 57 54 62 70 73 63 86
27 23 20 20 25 21 25 27 25 25 19 25 22 20 20 21 16 17 12 15 15 14 18 15 19 26 21 36 40 32 44 46 48 50 49 48 61 52 62 56 42 67 45 74 59 56 38
29 27 23 25 23 26 25 21 19 28 28 27 24 24 22 23 20 14 12 12 21 18 29 23 24 31 36 38 29 44 46 49 49 52 55 57 63 59 39 46 62 58 73 51 57 80 89
31 29 24 27 24 29 24 24 24 27 27 29 26 26 26 25 22 17 16 18 21 26 21 23 17 29 34 37 33 38 46 52 53 58 49 54 65 61 71 47 69 74 49 79 54 67 88
34 31 29 29 26 23 24 20 32 27 25 30 31 28 27 24 23 20 21 21 26 24 28 27 14 22 22 31 45 45 38 54 55 59 63 65 72 59 29 50 51 86 79 75 40 86 90
32 32 30 29 28 23 29 30 28 25 25 31 30 24 29 25 31 27 23 30 27 30 32 38 37 35 38 41 41 50 54 56 58 59 64 67 53 40 80 83 60 41 86 56 59 54 86
32 31 29 30 25 31 31 31 26 28 27 31 30 35 37 29 34 31 23 28 32 31 35 38 41 41 42 43 45 49 55 59 61 61 42 71 73 41 77 80 76 84 74 90 58 89 71
35 34 31 31 32 30 33 31 32 28 29 31 34 35 36 42 35 42 36 37 37 38 39 41 42 44 44 48 47 50 57 59 64 67 56 64 58 79 67 71 88 76 49 68 95 68 74
35 36 34 34 33 30 35 35 35 35 30 32 34 35 37 37 40 42 39 39 39 40 43 43 44 43 45 46 53 54 57 63 65 69 71 77 78 43 68 25 87 54 94 58 76 98 103
39 39 37 37 34 37 34 37 33 31 37 32 33 35 39 38 38 40 38 42 41 41 40 41 41 44 43 47 55 57 61 66 69 73 74 76 78 51 74 33 85 71 98 74 97 74 69
25 40 39 39 38 37 36 38 34 36 34 34 35 36 39 40 41 37 42 41 42 42 43 43 43 45 47 50 54 60 62 65 65 76 76 70 67 79 57 55 56 56 44 63 103 95 106
38 26 43 42 40 39 37 36 35 34 34 34 36 37 37 38 41 43 42 41 42 42 44 45 47 48 49 52 57 64 48 68 76 81 53 73 45 52 78 57 37 100 56 89 98 82 104
41 32 24 42 28 28 38 36 37 35 37 36 37 38 38 40 39 41 42 43 42 42 45 51 52 55 56 61 64 65 69 71 79 47 86 72 77 80 46 96 95 93 105 105 65 110 112
47 45 39 39 40 39 36 33 35 37 38 37 38 37 37 41 39 39 40 39 44 48 53 54 56 61 46 29 70 64 69 48 59 76 48 77 60 88 97 92 93 88 100 49 66 111 101
52 45 46 46 43 43 39 40 42 43 41 41 41 43 46 47 45 47 43 48 50 55 57 61 62 53 66 45 57 70 25 29 79 75 63 87 89 75 98 61 80 108 49 94 80 107 63
56 55 54 26 45 48 48 22 42 42 46 53 45 46 43 47 56 55 51 49 32 61 64 65 59 42 22 66 36 63 48 39 62 57 79 96 83 67 57 102 90 35 61 93 97 89 112
48 48 53 54 60 33 39 53 57 51 54 54 50 54 52 52 54 55 59 55 27 38 62 66 33 18 70 68 68 73 56 71 76 83 31 62 106 98 55 28 21 31 51 69 105 110 112
62 63 66 64 59 55 58 55 42 50 43 31 48 56 48 58 56 53 61 49 56 71 64 72 73 40 73 33 65 80 64 86 90 88 95 101 101 60 107 73 58 54 85 81 93 39 99
60 61 60 67 64 67 62 61 65 65 64 43 66 63 66 66 58 69 70 71 77 82 62 69 62 83 18 53 73 68 78 64 90 85 98 80 94 71 46 64 75 40 70 64 111 57 50
65 61 60 71 73 66 59 59 57 56 62 65 57 63 55 44 49 72 47 78 66 83 74 83 80 89 71 32 61 81 91 87 95 85 83 44 15 28 33 97 103 100 35 110 39 67 78
Wind_Direction
168 172 179 183 175 168 178 207 198 198 176 171 165 171 178 151 178 167 88 131 104 31 110 41 42 36 9 15 347 7 343 338 342 345 340 336 337 335 356 347 340 328 349 356 322 340 345
165 173 174 167 164 169 202 225 176 171 179 168 200 163 157 150 169 141 141 33 137 182 350 331 16 357 7 354 350 2 335 346 348 348 344 344 347 339 352 352 348 330 334 342 339 352 329
168 164 161 165 166 174 194 190 186 182 178 185 172 183 218 157 175 184 146 316 45 168 337 325 346 342 358 7 333 346 330 4 3 356 348 342 346 343 336 334 349 329 336 346 345 350 355
163 161 162 167 178 176 184 182 184 180 183 178 187 188 188 231 215 167 103 20 324 353 347 314 346 339 338 343 341 347 346 346 350 354 326 351 351 343 356 336 331 333 350 342 341 328 347
160 162 161 166 179 181 197 186 185 186 185 177 192 176 174 214 204 222 307 315 323 344 277 317 323 326 335 344 352 346 348 355 353 348 355 332 341 338 328 324 337 327 354 337 346 341 343
161 165 178 172 178 186 191 196 186 275 188 189 197 186 205 203 231 277 312 352 319 337 294 334 327 353 337 334 344 339 343 355 346 349 349 349 348 348 350 331 342 349 342 345 351 344 341
166 175 174 174 178 187 191 195 200 189 197 191 203 211 205 221 260 284 293 263 305 319 310 340 337 328 329 338 348 1 337 341 335 345 345 349 333 344 342 342 347 342 343 341 346 337 342
179 177 181 182 188 194 196 192 199 196 203 202 209 211 228 251 232 235 237 307 292 318 309 315 319 330 333 333 334 339 338 339 339 341 341 344 348 348 348 347 347 350 332 332 335 353 349
184 185 187 192 192 197 195 203 196 199 204 208 213 218 214 227 269 268 248 296 279 292 330 319 335 327 328 329 328 334 334 335 336 337 339 340 344 348 346 333 351 344 329 343 328 338 346
188 189 193 197 196 204 207 204 201 205 210 216 218 223 246 224 228 262 240 287 259 315 291 323 304 316 320 323 322 326 331 330 330 336 338 337 339 340 342 336 340 329 347 337 339 345 337
194 193 196 200 200 207 208 213 216 217 227 220 225 228 227 265 252 267 255 291 257 283 312 295 295 322 310 323 327 324 328 328 330 331 336 335 340 334 341 334 343 336 325 338 337 331 336
200 199 200 201 205 211 214 218 223 219 220 226 231 243 242 256 259 260 278 287 299 300 302 311 307 312 318 322 320 323 324 326 327 331 329 332 337 334 332 335 341 340 334 351 344 342 336
205 206 208 207 214 215 222 223 226 227 232 234 237 244 249 256 262 260 264 292 294 293 281 295 301 306 310 317 314 318 322 322 324 324 331 327 332 332 336 333 334 332 324 332 339 344 340
211 210 212 213 219 224 225 239 228 237 240 240 248 247 253 257 264 263 273 275 295 286 295 292 283 295 302 307 318 317 313 319 323 324 325 328 332 333 320 333 323 331 329 328 352 339 341
216 218 218 219 223 230 230 232 235 245 248 243 246 259 258 262 271 273 271 285 284 292 293 298 303 299 309 311 312 314 315 316 320 323 326 327 329 319 329 329 324 321 327 325 319 320 340
226 224 224 226 234 231 235 239 241 245 254 252 256 255 262 262 270 274 282 278 284 286 294 299 305 307 311 312 311 311 312 316 319 322 323 324 325 322 325 324 323 320 323 328 341 338 326
230 231 230 228 230 236 238 242 247 250 252 260 258 258 265 268 268 275 280 283 290 296 294 298 301 305 310 313 312 308 309 313 316 318 320 321 318 322 319 322 323 324 332 328 329 344 345
235 235 232 231 236 245 245 245 250 254 255 263 263 263 263 269 274 278 279 284 289 295 297 299 301 306 310 310 309 308 312 312 315 317 320 319 321 326 326 328 317 306 322 331 345 336 337
238 239 240 238 241 240 244 247 248 255 260 263 264 268 265 272 273 274 276 280 286 291 294 299 301 302 304 307 304 311 310 311 312 313 315 316 319 323 317 304 322 339 320 323 330 341 345
250 240 242 241 242 243 245 250 251 256 258 263 266 270 266 267 272 271 278 281 289 294 297 298 299 299 301 304 305 303 305 307 313 311 314 315 314 312 315 318 314 325 315 326 327 333 328
241 251 242 244 245 247 249 254 257 259 262 264 267 271 273 272 273 276 281 285 288 293 295 296 298 299 299 299 303 302 310 312 311 309 315 311 307 326 307 328 318 314 320 317 328 340 327
248 249 237 249 243 250 255 258 258 259 258 261 264 267 274 276 277 277 281 287 290 293 293 291 294 295 297 296 296 299 301 305 302 312 307 305 306 315 310 310 310 321 316 319 327 323 321
250 252 250 250 254 254 262 255 259 260 264 268 268 268 271 276 280 282 286 288 288 287 287 290 290 291 305 292 297 303 306 311 308 302 300 303 295 306 306 310 314 311 323 322 310 322 333
259 251 261 260 258 257 264 265 265 268 268 268 272 274 276 285 286 283 285 282 285 283 286 284 292 295 294 312 308 304 318 306 304 304 309 307 302 314 305 313 313 310 316 325 318 320 327
259 261 259 263 264 256 267 275 267 278 270 270 272 279 277 280 284 283 286 285 285 289 282 285 298 302 296 294 299 302 294 292 322 294 312 301 297 302 317 301 314 320 319 323 319 317 322
247 249 252 255 264 267 259 268 264 275 276 277 277 281 278 280 284 281 281 287 292 292 292 285 301 285 287 289 291 290 318 297 296 296 326 313 299 301 313 317 359 328 320 317 323 315 315
257 261 263 264 262 260 257 262 255 266 271 268 288 275 262 264 272 273 279 280 280 282 290 285 286 275 286 268 288 288 291 292 295 303 306 300 304 303 302 318 314 319 321 322 320 317 324
257 262 267 269 262 266 268 271 273 271 263 263 269 283 275 285 277 281 286 277 280 284 281 286 286 287 267 277 290 296 292 301 294 306 304 309 300 314 317 317 313 313 310 321 319 329 327
261 264 269 270 267 260 261 272 269 267 264 277 282 281 281 271 275 289 280 282 290 282 281 291 290 288 299 289 293 286 293 300 293 297 297 309 20 342 318 308 311 317 314 318 331 321 324